Kahului, HI

9:17 AM HST on July 28, 2017 (GMT -1000)
Kahului

Weather History for PHOG - January, 2013

Change the Weather History Date:

Monday, January 7, 2013

  Actual Average Record
Temperature  
Mean Temperature 75 °F 72 °F  
Max Temperature 82 °F 81 °F 87 °F (1955)
Min Temperature 68 °F 64 °F 52 °F (1967)
Degree Days  
Heating Degree Days 0 0  
Month to date heating degree days 0 0  
Since 1 July heating degree days 0 0  
Cooling Degree Days 10 7  
Month to date cooling degree days 62 49  
Year to date cooling degree days 62 49  
Growing Degree Days 24 (Base 50)    
Moisture  
Dew Point 62 °F    
Average Humidity 62    
Maximum Humidity 84    
Minimum Humidity 39    
Precipitation  
Precipitation T in 0.11 in 2.61 in (1963)
Month to date precipitation 0.81 0.72  
Year to date precipitation 0.81 0.72  
Snow  
Snow 0.00 in - - ()
Month to date snowfall 0.0  
Since 1 July snowfall 0.0  
Snow Depth 0.00 in    
Sea Level Pressure  
Sea Level Pressure 30.02 in    
Wind  
Wind Speed 19 mph (ENE)    
Max Wind Speed 29 mph    
Max Gust Speed 36 mph    
Visibility 10 miles    
Events      
T = Trace of Precipitation, MM = Missing Value Source: NWS Daily Summary

Daily Weather History Graph

Daily Weather History Graph

Search for Another Location

Airport or City:

Trip Planner

Search our weather history database for the weather conditions in past years. The results will help you decide how hot, cold, wet, or windy it might be!

Date:

Astronomy

Jan. 07, 2013 Rise Set
Actual Time 7:04 AM HST 6:00 PM HST
Civil Twilight 6:40 AM HST 6:24 PM HST
Nautical Twilight 6:12 AM HST 6:51 PM HST
Astronomical Twilight 5:45 AM HST 7:18 PM HST
Moon 2:48 AM HST (1/7) 2:15 PM HST (1/7)
Length of Visible Light 11h 44m
Length of Day
10h 56m
Waning Crescent, 21% of the Moon is Illuminated
Jan 7
Waning Crescent
Jan 11
New
Jan 18
First Quarter
Jan 26
Full
Feb 3
Last Quarter

Hourly Weather History & Observations

Time (HST) Temp. Heat Index Dew Point Humidity Pressure Visibility Wind Dir Wind Speed Gust Speed Precip Events Conditions
12:54 AM 71.1 °F - 66.0 °F 84% 30.04 in 10.0 mi NE 19.6 mph 29.9 mph 0.00 in   Scattered Clouds
1:54 AM 71.1 °F - 64.9 °F 81% 30.02 in 10.0 mi ENE 17.3 mph 31.1 mph N/A   Clear
2:54 AM 71.1 °F - 64.9 °F 81% 30.01 in 10.0 mi NE 17.3 mph 23.0 mph N/A   Partly Cloudy
3:54 AM 72.0 °F - 62.1 °F 71% 30.00 in 10.0 mi SE 9.2 mph - N/A   Clear
4:54 AM 71.1 °F - 64.0 °F 78% 30.00 in 10.0 mi East 15.0 mph 25.3 mph N/A   Clear
5:54 AM 71.1 °F - 64.9 °F 81% 30.02 in 10.0 mi ENE 20.7 mph 29.9 mph N/A   Partly Cloudy
6:54 AM 72.0 °F - 63.0 °F 73% 30.05 in 10.0 mi NE 12.7 mph 26.5 mph N/A   Scattered Clouds
7:45 AM 71.6 °F - 62.6 °F 73% 30.05 in 10.0 mi East 11.5 mph 21.9 mph N/A   Scattered Clouds
7:54 AM 69.1 °F - 61.0 °F 75% 30.07 in 10.0 mi ESE 5.8 mph - N/A   Scattered Clouds
8:54 AM 73.9 °F - 63.0 °F 68% 30.09 in 10.0 mi ENE 15.0 mph 19.6 mph N/A   Scattered Clouds
9:54 AM 75.9 °F - 66.0 °F 71% 30.09 in 10.0 mi ENE 15.0 mph 21.9 mph N/A   Scattered Clouds
10:54 AM 78.1 °F - 64.0 °F 62% 30.07 in 10.0 mi ENE 15.0 mph 27.6 mph N/A   Scattered Clouds
11:54 AM 79.0 °F - 64.0 °F 60% 30.04 in 10.0 mi ENE 16.1 mph 26.5 mph N/A   Scattered Clouds
12:54 PM 81.0 °F 80.5 °F 54.0 °F 39% 30.01 in 10.0 mi ENE 25.3 mph 34.5 mph N/A   Scattered Clouds
1:54 PM 81.0 °F 81.0 °F 57.0 °F 44% 29.98 in 10.0 mi ENE 20.7 mph 31.1 mph N/A   Partly Cloudy
2:54 PM 80.1 °F 80.7 °F 59.0 °F 48% 29.96 in 10.0 mi NE 20.7 mph 32.2 mph N/A   Scattered Clouds
3:54 PM 79.0 °F - 59.0 °F 50% 29.96 in 10.0 mi NE 26.5 mph 34.5 mph N/A   Partly Cloudy
4:54 PM 77.0 °F - 57.9 °F 52% 29.97 in 10.0 mi NE 25.3 mph 35.7 mph N/A   Partly Cloudy
5:54 PM 73.9 °F - 61.0 °F 64% 29.99 in 10.0 mi NE 28.8 mph 34.5 mph N/A   Partly Cloudy
6:54 PM 73.0 °F - 61.0 °F 66% 30.02 in 10.0 mi NE 24.2 mph 34.5 mph N/A   Clear
7:54 PM 72.0 °F - 61.0 °F 68% 30.04 in 10.0 mi NE 21.9 mph 29.9 mph N/A   Clear
8:54 PM 72.0 °F - 59.0 °F 64% 30.03 in 10.0 mi NE 20.7 mph - N/A   Clear
9:54 PM 72.0 °F - 62.1 °F 71% 30.02 in 10.0 mi NE 28.8 mph 35.7 mph N/A   Clear
10:54 PM 72.0 °F - 63.0 °F 73% 30.04 in 10.0 mi ENE 16.1 mph 20.7 mph N/A   Clear
11:54 PM 71.1 °F - 63.0 °F 75% 30.02 in 10.0 mi East 8.1 mph - N/A   Clear